Retour au catalogue

USA 22

ActifMilitaireLEO
NORAD 17997·PAYLOAD·🇺🇸 United States

Lancé May 15, 1987 depuis Vandenberg Space Force Base

Loading…

Prochains Passages (prochaines 24 heures)

TLE

FraisSource: Space-Track

Époque: Sep 14, 2026, 13:03 UTC

1 17997U 87043A   26257.54401408  .00006989  00000-0  35615-3 0  9998
2 17997  63.2885 294.2981 0667564 109.8124 257.6140 14.15044858119120

Suivez USA 22 en temps réel avec AllMySat

Download on the App Store